This is the latest recevied weather packets stored in our database for station/object IZ3LCH-13. If no packets are shown the sender has not sent any weather packets the latest 10 day(s).
| Time | Temp. | Humidity | Pressure | Rain* | Wind** | Luminosity | Snow |
|---|---|---|---|---|---|---|---|
| 1777901703 | 27.22° C | 36% | 1015.2 hPa | 0 mm | - | - | - |
| 1777901403 | 27.22° C | 35% | 1015.2 hPa | 0 mm | - | - | - |
| 1777901103 | 27.22° C | 34% | 1015.3 hPa | 0 mm | - | - | - |
| 1777900803 | 27.22° C | 39% | 1015.2 hPa | 0 mm | - | - | - |
| 1777900503 | 26.67° C | 38% | 1015.2 hPa | 0 mm | - | - | - |
| 1777900203 | 26.67° C | 37% | 1015.6 hPa | 0 mm | - | - | - |
| 1777899903 | 26.67° C | 40% | 1015.5 hPa | 0 mm | - | - | - |
| 1777899603 | 26.67° C | 37% | 1015.5 hPa | 0 mm | - | - | - |
| 1777899303 | 26.11° C | 40% | 1015.7 hPa | 0 mm | - | - | - |
| 1777899003 | 26.11° C | 41% | 1015.6 hPa | 0 mm | - | - | - |
| 1777898703 | 25.56° C | 42% | 1015.7 hPa | 0 mm | - | - | - |
| 1777898403 | 26.11° C | 41% | 1015.9 hPa | 0 mm | - | - | - |
| 1777898103 | 26.67° C | 42% | 1015.6 hPa | 0 mm | - | - | - |
| 1777897803 | 26.67° C | 44% | 1015.9 hPa | 0 mm | - | - | - |
| 1777897503 | 26.67° C | 42% | 1015.9 hPa | 0 mm | - | - | - |
| 1777897203 | 26.67° C | 42% | 1015.8 hPa | 0 mm | - | - | - |
| 1777896903 | 26.11° C | 43% | 1015.9 hPa | 0 mm | - | - | - |
| 1777896603 | 26.11° C | 43% | 1016.1 hPa | 0 mm | - | - | - |
| 1777896303 | 26.11° C | 41% | 1016 hPa | 0 mm | - | - | - |
| 1777896003 | 26.11° C | 41% | 1016 hPa | 0 mm | - | - | - |
| 1777895703 | 26.11° C | 45% | 1016 hPa | 0 mm | - | - | - |
| 1777895403 | 26.11° C | 42% | 1015.9 hPa | 0 mm | - | - | - |
| 1777895103 | 26.11° C | 47% | 1016 hPa | 0 mm | - | - | - |
| 1777894803 | 26.11° C | 46% | 1016.1 hPa | 0 mm | - | - | - |
| 1777894503 | 26.11° C | 47% | 1016 hPa | 0 mm | - | - | - |
* Rain latest hour (hover to see other rain measurements)
** Current wind speed in m/s (hover to see current wind gust speed)